RH
68 50 42 79 80 65 59 52 42 37 62 67 63 61 73 82 68 56 90 89 50 20 22 24 29 83 94 85 23 26 26 32 77 94 66 51 74 78 62 68 77 80 85
71 54 54 80 86 61 52 42 37 30 35 52 51 48 76 77 73 86 98 99 38 20 14 12 28 81 94 30 66 73 63 61 54 64 74 56 51 78 68 72 66 74 92
65 66 60 84 82 63 49 39 32 29 24 28 44 69 76 95 86 95 99 92 37 20 16 12 68 87 77 54 89 97 83 91 90 88 86 82 65 66 58 62 43 42 40
65 65 53 86 78 72 59 42 33 39 32 44 62 63 78 95 95 98 87 43 27 15 12 13 36 79 85 81 92 89 93 89 88 86 80 58 89 91 61 38 60 90 93
67 66 59 86 85 75 80 52 40 46 40 45 49 63 92 97 97 98 68 36 26 12 13 17 22 67 100 81 75 85 83 64 72 75 67 57 97 97 92 91 94 94 90
68 68 64 70 83 88 76 65 38 53 42 55 75 87 98 98 100 98 48 28 16 12 16 33 33 99 62 62 64 72 57 49 49 59 84 85 98 99 92 92 97 92 58
71 66 64 60 78 87 98 74 68 85 52 74 81 90 98 99 98 46 25 19 11 11 20 29 47 90 51 59 61 62 42 59 79 89 98 95 91 93 96 100 88 94 66
76 75 66 62 77 77 91 98 81 90 62 77 83 81 68 88 71 21 14 12 9 12 33 21 69 44 52 60 60 48 71 88 91 95 91 88 94 97 98 87 99 92 83
62 82 75 69 72 76 85 90 91 82 73 82 83 75 63 28 22 16 12 9 9 11 18 20 46 51 67 68 58 62 93 91 93 82 95 96 98 97 98 98 95 99 99
65 77 84 75 75 74 76 83 84 84 75 94 89 79 48 30 20 13 10 9 10 11 14 18 52 58 74 66 57 74 92 88 86 84 94 96 99 99 98 97 99 96 98
57 73 81 81 74 78 76 87 89 83 82 94 99 88 65 43 21 14 10 10 10 11 14 23 65 66 83 69 54 83 95 85 93 92 93 97 98 96 96 98 99 99 99
28 31 62 70 76 79 81 88 96 94 87 88 99 99 86 63 35 16 12 10 13 11 16 49 82 74 79 72 69 87 93 83 89 85 93 98 98 98 98 99 94 100 95
33 32 29 38 64 86 89 90 95 100 97 84 86 98 93 76 53 19 13 15 14 14 16 69 60 64 70 75 74 92 90 86 91 95 93 97 98 100 98 99 100 100 100
33 35 34 30 38 65 83 92 95 99 100 93 80 88 97 86 66 27 14 17 18 19 20 42 52 72 80 79 78 95 94 93 97 90 99 98 97 99 98 96 100 99 100
34 36 38 35 32 43 64 82 93 97 98 99 93 86 92 93 78 38 16 17 20 22 24 42 54 70 79 69 94 95 93 93 96 85 97 98 99 97 97 97 95 98 97
35 39 40 40 38 33 50 70 87 92 97 99 99 94 86 95 89 54 22 22 20 23 31 46 56 70 73 81 97 95 92 98 89 91 99 98 99 98 98 98 100 100 100
29 33 39 39 40 37 37 52 78 84 87 98 93 98 92 92 97 73 27 22 30 26 36 69 70 70 74 82 87 95 91 95 91 71 78 95 99 99 99 96 99 100 100
27 30 34 38 39 41 43 46 50 70 76 91 99 96 91 96 99 85 36 25 30 36 43 64 66 71 81 88 86 94 89 92 91 83 76 57 58 71 100 100 100 100 98
26 27 33 37 38 41 45 50 57 66 86 91 90 94 96 99 98 89 44 28 37 39 56 70 68 74 91 88 87 90 86 89 92 95 86 75 70 68 70 97 99 100 99
21 30 31 35 37 43 47 55 65 94 100 100 95 84 84 81 100 91 47 41 40 35 76 88 90 89 91 88 89 99 97 89 92 93 89 83 75 55 56 55 41 50 69
23 27 33 34 38 43 54 62 80 78 78 79 62 54 59 71 68 95 66 54 54 35 57 96 100 100 98 93 90 100 100 98 93 92 96 95 87 63 46 42 35 36 38
24 26 33 36 36 38 46 52 60 53 60 56 55 63 74 74 71 69 84 77 66 42 74 100 100 99 93 91 93 95 100 100 96 89 95 98 98 82 54 34 29 29 32
26 26 28 37 35 36 38 50 66 66 67 73 73 78 85 87 98 84 80 95 77 49 83 99 100 92 91 94 90 84 97 94 98 90 95 99 94 84 58 43 37 36 33
28 27 32 37 36 37 40 50 64 63 68 65 63 72 77 84 97 84 68 86 98 58 89 95 91 89 82 95 92 85 88 80 90 91 92 95 81 78 54 47 39 39 39
35 35 38 39 40 42 48 59 67 68 66 66 89 94 96 99 100 88 77 70 100 78 68 88 84 87 91 85 97 90 91 61 62 61 67 76 75 69 53 48 45 42 41
43 42 42 44 47 52 61 73 75 79 85 99 100 100 99 90 100 91 67 63 81 94 68 74 69 78 90 89 88 88 87 68 39 42 36 35 55 57 45 46 44 38 41
Wind_Speed
9 16 16 17 18 19 20 19 18 19 19 19 17 13 12 11 8 8 10 7 9 11 11 10 9 12 12 11 9 10 12 13 15 13 11 12 13 11 12 11 12 15 15
6 14 17 20 18 19 20 19 19 18 18 18 16 15 13 11 12 14 11 11 10 9 9 10 10 13 13 11 14 15 18 18 16 15 15 14 11 11 12 11 10 12 14
6 11 17 21 20 19 19 19 18 18 17 18 17 15 14 14 13 12 12 11 7 6 7 8 11 13 11 14 16 17 18 20 19 16 14 13 12 10 11 9 8 8 10
6 9 16 20 19 18 19 19 19 18 17 16 16 15 13 14 13 13 11 8 7 7 8 9 11 12 14 15 15 19 20 19 16 13 11 11 22 16 19 20 22 22 20
8 8 13 19 20 18 18 19 21 19 17 16 14 12 15 14 14 12 11 10 7 7 9 9 10 12 15 15 17 17 16 13 13 14 14 22 23 21 18 20 18 18 14
9 8 12 17 19 18 17 21 21 19 18 15 12 13 15 15 14 13 12 10 7 8 9 10 12 16 13 15 14 15 12 12 16 20 24 23 19 20 17 17 16 13 16
9 8 12 16 21 19 17 17 20 19 19 18 18 16 16 14 14 13 11 10 9 9 10 12 14 15 15 13 16 15 12 21 22 22 20 21 17 14 15 15 17 14 22
8 7 11 15 19 21 21 20 19 20 21 21 19 17 15 15 14 12 10 10 10 10 11 13 16 15 14 16 17 15 23 23 19 19 19 14 11 15 13 13 14 16 23
11 10 11 13 18 22 22 21 19 20 22 22 20 17 15 12 11 11 10 11 11 12 12 15 17 16 15 15 14 21 21 19 20 16 15 14 15 15 13 17 14 15 15
14 14 14 14 16 21 24 22 20 22 24 24 22 18 15 12 11 10 11 12 13 12 14 17 18 17 16 14 14 23 20 20 16 14 12 13 14 15 12 14 15 12 13
11 14 17 17 17 20 24 24 22 21 25 25 23 19 17 13 12 11 12 13 14 13 16 19 18 17 16 15 17 22 19 17 12 11 14 13 14 13 13 13 14 14 13
16 15 18 21 21 22 25 26 26 24 26 25 24 23 19 14 12 12 14 14 14 14 18 20 18 20 18 18 21 20 18 15 11 9 13 12 12 12 14 13 14 13 12
19 19 20 21 23 26 27 28 29 29 28 28 26 26 21 18 15 15 16 17 16 17 21 22 20 20 19 19 19 18 18 14 11 8 12 13 12 14 12 11 14 12 14
27 23 21 22 23 25 28 30 32 32 32 31 30 29 26 23 20 18 18 18 17 20 25 24 23 22 20 18 21 20 18 14 11 9 13 13 13 13 10 11 13 14 11
28 26 24 22 23 25 28 30 32 35 35 34 35 33 31 27 24 21 21 20 19 23 27 26 25 24 20 20 23 19 17 13 9 11 13 14 15 12 11 10 11 12 11
28 26 24 26 25 25 27 30 33 33 35 36 38 40 34 31 27 24 23 22 20 25 27 27 27 25 22 22 22 18 15 13 8 13 13 14 14 13 11 11 10 11 12
26 32 32 28 26 25 26 27 29 31 30 33 34 48 38 35 31 27 25 24 22 27 30 30 29 25 24 23 21 20 17 14 9 10 11 13 13 9 10 11 10 10 9
22 25 31 33 31 27 27 27 28 28 26 27 33 35 41 41 34 29 27 26 25 29 33 33 31 29 26 23 22 21 19 16 10 11 8 8 7 9 11 11 9 10 8
27 25 27 30 32 31 30 30 31 29 28 27 26 28 41 42 40 32 29 28 27 31 35 35 33 30 30 27 23 24 20 16 13 11 8 8 5 4 7 10 11 11 8
31 31 29 29 29 33 34 34 34 34 33 32 31 31 32 30 34 33 31 30 30 34 37 36 33 30 31 28 26 24 21 18 15 11 9 8 5 5 8 8 5 7 8
28 34 35 31 30 34 38 39 39 39 36 33 32 31 31 32 32 32 32 33 33 37 41 38 35 35 33 31 27 25 22 21 17 15 13 11 8 6 7 9 8 7 6
24 32 33 31 30 30 36 39 40 37 36 34 32 32 31 31 34 29 34 34 35 40 43 42 40 38 36 31 33 30 24 23 22 21 18 16 13 10 9 9 9 8 8
21 28 30 31 30 30 31 36 40 35 29 29 32 36 38 35 38 31 33 30 36 42 46 44 42 42 41 38 35 27 14 12 26 25 23 21 18 14 13 12 11 10 9
17 23 27 31 32 31 34 38 40 42 40 35 44 46 46 43 42 33 37 34 38 41 48 46 42 42 41 42 40 35 25 16 15 15 31 28 23 19 16 15 13 12 10
13 18 23 27 30 32 32 36 40 44 47 45 39 40 46 45 42 38 43 47 40 41 47 47 44 43 42 41 43 41 33 18 13 10 9 29 28 23 20 18 16 14 13
6 12 18 21 23 25 28 34 40 44 42 45 43 43 41 49 40 41 45 50 42 40 49 47 44 43 43 41 41 41 41 30 16 10 8 7 23 23 21 20 19 17 15
Wind_Direction
170 179 176 170 180 182 182 183 184 180 177 174 177 174 171 169 161 142 148 156 143 127 131 141 145 131 116 114 98 106 99 99 105 112 91 112 115 116 122 116 110 101 100
167 182 180 174 183 181 180 182 184 185 186 181 180 178 177 162 155 143 149 139 137 139 141 139 138 125 123 106 106 98 98 100 101 96 90 97 127 123 125 120 129 123 114
147 177 183 180 190 186 184 184 184 183 187 188 179 176 168 150 146 154 161 167 153 148 149 148 137 134 127 118 118 123 113 103 102 103 96 91 93 109 126 125 119 118 97
139 169 186 183 192 189 188 187 184 183 181 173 177 175 161 158 162 169 177 183 174 165 163 157 150 142 130 131 131 128 119 116 115 114 110 95 92 89 90 95 88 83 86
151 165 185 184 193 196 194 189 188 183 178 177 176 168 161 169 172 167 191 195 190 171 164 160 153 145 142 139 139 136 131 113 112 125 109 97 87 90 92 92 104 106 101
156 169 187 188 193 196 198 197 186 180 175 171 169 172 169 175 171 179 194 198 198 178 167 161 153 147 161 144 138 138 127 120 105 111 95 101 102 108 112 113 111 104 98
162 171 190 194 193 200 194 192 184 180 173 175 184 186 177 180 177 195 195 197 198 185 168 167 153 166 152 144 138 132 127 119 109 110 112 118 118 131 120 110 114 103 118
180 182 191 198 196 200 199 198 194 184 181 188 194 200 204 186 191 200 199 200 197 189 173 170 160 169 155 140 135 123 125 121 131 130 121 134 122 107 108 146 110 102 124
195 192 194 197 202 204 205 205 208 194 190 196 206 210 224 215 216 203 200 202 197 195 179 174 171 167 157 145 136 136 131 132 138 130 128 123 118 108 106 102 102 108 111
206 205 199 200 209 208 209 210 215 212 200 204 207 216 223 224 220 216 204 203 203 194 179 177 173 167 160 152 145 146 141 145 147 143 139 117 116 113 104 108 100 104 116
204 212 214 208 214 219 215 214 215 216 212 210 212 219 222 226 224 214 210 208 206 189 180 174 171 166 165 158 152 150 149 152 149 160 137 126 125 130 110 108 108 101 103
228 223 222 221 214 223 219 218 216 217 217 216 218 222 223 226 230 220 211 215 204 187 180 169 173 172 168 164 156 153 156 163 169 148 130 132 128 128 117 106 114 99 96
252 244 234 225 222 221 220 222 222 222 220 222 223 227 227 226 227 222 213 206 204 186 181 175 176 176 174 171 163 162 166 166 168 172 137 136 132 133 116 107 106 106 101
250 243 232 228 225 222 224 224 226 225 223 223 224 228 227 227 225 224 218 211 205 189 187 183 178 175 175 178 168 171 169 170 166 162 145 134 132 125 139 119 113 106 102
245 239 230 224 228 226 225 228 229 229 228 227 227 223 229 230 228 223 219 213 208 192 193 185 179 175 174 171 168 179 181 183 178 168 150 143 131 152 126 117 113 116 109
238 231 232 229 226 227 227 229 232 234 234 232 234 225 226 229 230 225 221 215 207 196 192 189 183 177 173 173 176 184 187 177 187 162 148 141 147 148 131 122 119 116 108
245 237 235 233 228 228 227 229 233 238 239 238 237 231 224 229 227 226 222 218 209 196 191 188 184 179 173 177 187 189 187 181 189 168 152 145 142 144 137 139 126 118 112
247 238 233 233 234 229 225 226 231 233 235 235 232 232 228 223 223 226 224 218 208 198 191 191 186 180 178 181 188 190 191 191 186 169 160 158 146 157 151 143 137 123 121
250 239 231 232 232 228 226 224 225 227 227 225 223 228 229 222 221 220 222 217 206 199 191 191 186 185 183 183 191 193 193 192 193 189 186 175 184 208 196 157 153 143 133
240 237 234 232 229 224 224 221 221 221 223 230 232 234 232 238 225 215 219 215 206 200 193 190 186 181 179 183 190 194 191 199 202 208 208 203 210 211 211 211 201 164 137
233 227 230 229 229 223 220 219 219 222 224 223 228 232 236 232 234 227 217 213 207 203 196 192 184 179 182 189 190 186 194 201 203 215 220 224 227 227 228 217 217 209 177
242 223 224 225 226 226 224 224 226 229 229 235 239 240 234 229 231 231 222 215 210 202 196 194 191 183 188 188 191 186 185 199 212 218 220 225 233 232 233 223 210 209 202
238 220 218 217 222 226 229 227 225 225 230 230 239 241 231 224 216 218 212 221 216 209 199 198 198 195 187 189 196 188 182 207 214 223 225 229 232 233 229 223 219 216 217
217 211 209 215 224 230 232 230 228 228 225 238 257 249 231 223 214 222 219 226 226 215 203 201 203 205 199 190 195 203 200 206 199 220 224 232 226 230 224 223 223 224 224
199 201 209 223 231 234 235 232 231 231 232 245 247 236 220 213 204 205 212 221 229 220 209 207 208 208 209 202 200 199 203 212 214 218 223 224 228 225 224 223 224 224 228
204 211 222 231 238 240 238 232 234 235 249 251 220 215 217 209 187 198 207 223 231 224 215 212 214 213 213 211 211 205 208 208 219 222 251 253 232 231 230 228 229 227 227